FW5707 Weather Reports


Display with metric or nautical units.
time (UTC)temp
F
wind
direction
speed
MPH
gust
MPH
rain 1hr
in
rain 24hr
in
rain mn
in
humidity
%
barometer
mb
20260505081605 65 183 0.0 0.0 0.00 0.00 0.00 81 1010.9
20260505080040 65 300 0.0 0.0 0.00 0.00 0.00 81 1010.9
20260505074613 65 319 0.0 0.0 0.00 0.00 0.00 82 1011.0
20260505073041 65 132 0.0 0.0 0.00 0.00 0.00 81 1011.0
20260505071512 65 86 0.0 0.0 0.00 0.00 0.00 81 1011.1
20260505070035 65 43 0.0 0.0 0.00 0.00 0.00 81 1011.4
20260505064503 65 69 0.0 0.0 0.00 0.00 0.00 82 1011.4
20260505063045 65 37 0.0 0.0 0.00 0.00 0.00 82 1011.7
20260505061526 65 299 0.0 0.0 0.00 0.00 0.00 81 1011.9
20260505060051 66 299 0.0 0.0 0.00 0.00 0.00 81 1011.9
20260505054521 66 299 0.0 0.0 0.00 0.00 0.00 81 1011.9
20260505053101 66 134 0.0 0.0 0.00 0.00 0.00 81 1012.0
20260505051535 66 171 0.0 0.0 0.00 0.00 0.00 80 1012.1
20260505041550 67 292 0.0 0.0 0.00 0.00 0.00 78 1012.7
20260505040020 68 157 0.0 0.0 0.00 0.00 0.00 78 1012.4
20260505034601 68 218 0.0 0.0 0.00 0.00 0.00 77 1012.3
20260505033045 68 218 0.0 0.0 0.00 0.00 0.00 77 1012.3
20260505031516 69 209 0.0 0.0 0.00 0.00 0.00 76 1012.2
20260505030054 69 209 0.0 0.0 0.00 0.00 0.00 75 1012.1
20260505024547 69 184 0.0 0.0 0.00 0.00 0.00 75 1012.0
20260505023102 70 236 0.0 0.0 0.00 0.00 0.00 74 1011.8
20260505021546 70 277 0.0 0.0 0.00 0.00 0.00 73 1011.8
20260505020027 71 261 0.0 0.0 0.00 0.00 0.00 73 1011.5
20260505014559 71 245 0.0 0.0 0.00 0.00 0.00 72 1011.5
20260505013044 72 155 0.0 0.0 0.00 0.00 0.00 71 1011.4
20260505011512 72 245 0.0 0.0 0.00 0.00 0.00 70 1011.5
20260505010054 73 347 0.0 0.0 0.00 0.00 0.00 69 1011.4
20260505004529 74 221 0.0 0.0 0.00 0.00 0.00 68 1011.5
20260505003104 74 246 0.0 0.0 0.00 0.00 0.00 67 1011.4
20260505001527 75 242 0.0 0.0 0.00 0.00 0.00 66 1011.4
20260505000112 76 224 0.0 0.0 0.00 0.00 0.00 64 1011.4
20260504234537 77 346 0.0 0.0 0.00 0.00 0.00 63 1011.5
20260504233007 78 78 0.0 0.0 0.00 0.00 0.00 61 1011.9
20260504231538 78 228 0.0 0.0 0.00 0.00 0.00 61 1012.1
20260504230010 79 229 0.0 0.0 0.00 0.00 0.00 60 1012.2
20260504224550 79 210 0.0 0.0 0.00 0.00 0.00 59 1012.3
20260504223017 79 278 0.0 0.0 0.00 0.00 0.00 58 1012.4
20260504221609 80 265 0.0 0.0 0.00 0.00 0.00 57 1012.6
20260504220052 81 209 0.0 0.0 0.00 0.00 0.00 57 1012.7
20260504214508 81 202 0.0 0.0 0.00 0.00 0.00 55 1012.9
20260504213039 81 259 0.0 0.0 0.00 0.00 0.00 56 1013.0
20260504211508 80 192 0.0 0.0 0.00 0.00 0.00 59 1013.1
20260504210047 80 222 0.0 0.0 0.00 0.00 0.00 58 1013.5
20260504204541 79 236 0.0 0.0 0.00 0.00 0.00 62 1013.6
20260504203107 79 198 0.0 0.0 0.00 0.00 0.00 60 1013.7
20260504201536 79 254 0.0 0.0 0.00 0.00 0.00 56 1014.0
20260504200115 79 261 0.0 0.0 0.00 0.00 0.00 55 1014.4
20260504194539 79 259 0.0 0.0 0.00 0.00 0.00 56 1014.6
20260504193109 80 250 0.0 0.0 0.00 0.00 0.00 56 1014.8
20260504191530 80 232 0.0 0.0 0.00 0.00 0.00 55 1015.1
20260504190010 79 123 0.0 0.0 0.00 0.00 0.00 59 1015.2
20260504184555 79 250 0.0 0.0 0.00 0.00 0.00 53 1015.4
20260504183019 78 236 0.0 0.0 0.00 0.00 0.00 56 1015.8
20260504181505 78 240 0.0 0.0 0.00 0.00 0.00 56 1015.9
20260504180023 79 214 0.0 0.0 0.00 0.00 0.00 54 1015.8
20260504174557 78 167 0.0 0.0 0.00 0.00 0.00 50 1016.1
20260504173024 77 313 0.0 0.0 0.00 0.00 0.00 51 1016.4
20260504171556 76 257 0.0 0.0 0.00 0.00 0.00 53 1016.7